sat.trackr.live / text

‹ back to catalog

STARLINK-36033

NORAD 66893 · 2025-283R

PAYLOAD ACTIVE UNKNOWN

§ Identity

Operator
Country
US
Launch date
2025-12-04
Launch site
AFWTR
Launch vehicle
Mass (kg)
RCS (m²)

Purposes: comms

External: N2YO · Heavens-Above · Gunter

§ Orbital elements

Epoch: 2026-05-25T01:46:45.022080Z

Period
94.10 min
Inclination
53.1609°
Eccentricity
0.0001217
Mean motion
15.30233647 rev/d
Perigee alt
474.3 km
Apogee alt
475.9 km
Semi-major
6,853.3 km
B*
7.1540e-4
RAAN
29.7436°
Arg perigee
93.8519°
Mean anomaly
266.2621°
Rev number
2,753

§ Raw data

STARLINK-360331 66893U 25283R   26145.07413220  .00020910  00000+0  71540-3 0  99902 66893  53.1609  29.7436 0001217  93.8519 266.2621 15.30233647 27531

JSON: /api/v1/satellites/66893 · /tle

For live sub-satellite position, see the globe view (requires WebGL).

§ Visibility from observer

Set your observer location to see the next 7 days of passes ≥ 10°. The values pass through the URL so the page stays shareable.

No JS? Fill the form by hand. The geolocation button needs JavaScript.